KH6CTR Weather Reports


Display with metric or nautical units.
time (UTC)temp
F
wind
direction
speed
MPH
gust
MPH
rain 1hr
in
rain 24hr
in
rain mn
in
humidity
%
barometer
mb
20260507171328 72 39 0.0 1.0 0.00 0.00 0.00 84 1016.6
20260507170830 72 99 0.0 2.0 0.00 0.00 0.00 84 1016.6
20260507170328 72 0 0.0 2.0 0.00 0.00 0.00 84 1016.5
20260507165830 71 56 0.0 2.0 0.00 0.00 0.00 84 1016.5
20260507164830 71 48 0.0 3.0 0.00 0.00 0.00 84 1016.4
20260507164327 71 114 0.0 3.0 0.00 0.00 0.00 84 1016.3
20260507163829 71 133 0.0 2.0 0.00 0.00 0.00 84 1016.3
20260507163326 71 58 0.0 3.0 0.00 0.00 0.00 84 1016.1
20260507162829 71 357 1.0 3.0 0.00 0.00 0.00 84 1016.0
20260507162326 71 66 0.0 2.0 0.00 0.00 0.00 84 1016.1
20260507161327 71 0 0.0 2.0 0.00 0.00 0.00 84 1015.9
20260507160829 71 73 0.0 3.0 0.00 0.00 0.00 84 1015.7
20260507160326 71 69 0.0 3.0 0.00 0.00 0.00 85 1015.7
20260507155830 70 8 0.0 2.0 0.00 0.00 0.00 85 1015.7
20260507155326 70 94 0.0 1.0 0.00 0.00 0.00 85 1015.6
20260507154827 70 82 0.0 2.0 0.00 0.00 0.00 85 1015.5
20260507154326 70 38 0.0 2.0 0.00 0.00 0.00 85 1015.5
20260507153828 70 30 0.0 1.0 0.00 0.00 0.00 85 1015.5
20260507153326 70 49 0.0 2.0 0.00 0.00 0.00 85 1015.4
20260507152829 70 52 0.0 2.0 0.00 0.00 0.00 85 1015.3
20260507152325 70 48 0.0 1.0 0.00 0.00 0.00 85 1015.1
20260507151828 70 0 0.0 3.0 0.00 0.00 0.00 85 1015.1
20260507151326 70 51 1.0 3.0 0.00 0.00 0.00 84 1015.0
20260507150828 70 61 0.0 2.0 0.00 0.00 0.00 84 1015.0
20260507150326 70 72 0.0 1.0 0.00 0.00 0.00 84 1014.8
20260507145827 70 62 0.0 1.0 0.00 0.00 0.00 84 1014.9
20260507145327 71 56 0.0 1.0 0.00 0.00 0.00 83 1014.8
20260507144826 71 51 0.0 2.0 0.00 0.00 0.00 83 1014.7
20260507144325 71 49 0.0 2.0 0.00 0.00 0.00 83 1014.7
20260507143825 71 54 0.0 1.0 0.00 0.00 0.00 83 1014.7
20260507143325 71 121 0.0 1.0 0.00 0.00 0.00 84 1014.7
20260507142324 71 121 0.0 1.0 0.00 0.00 0.00 84 1014.7
20260507141826 71 72 0.0 0.0 0.00 0.00 0.00 84 1014.8
20260507140826 71 62 0.0 1.0 0.00 0.00 0.00 84 1014.8
20260507140325 71 59 0.0 2.0 0.00 0.00 0.00 84 1014.8
20260507135826 71 59 0.0 2.0 0.00 0.00 0.00 84 1014.9
20260507135325 71 52 0.0 2.0 0.00 0.00 0.00 84 1014.9
20260507134827 71 51 0.0 2.0 0.00 0.00 0.00 84 1015.0
20260507134324 71 59 0.0 1.0 0.00 0.00 0.00 84 1015.0
20260507133828 71 59 0.0 1.0 0.00 0.00 0.00 84 1014.9
20260507133323 71 58 0.0 1.0 0.00 0.00 0.00 84 1014.9
20260507132825 71 58 0.0 1.0 0.00 0.00 0.00 84 1014.9
20260507132324 71 58 0.0 1.0 0.00 0.00 0.00 84 1015.0
20260507131826 71 59 0.0 1.0 0.00 0.00 0.00 84 1015.0
20260507131324 71 59 0.0 1.0 0.00 0.00 0.00 84 1015.0
20260507130325 71 28 0.0 2.0 0.00 0.00 0.00 84 1015.1
20260507125826 71 31 0.0 3.0 0.00 0.00 0.00 84 1015.1
20260507125325 71 89 0.0 3.0 0.00 0.00 0.00 84 1015.3
20260507124826 71 71 0.0 2.0 0.00 0.00 0.00 84 1015.4
20260507124322 71 30 0.0 2.0 0.00 0.00 0.00 84 1015.4
20260507123323 71 51 0.0 2.0 0.00 0.00 0.00 84 1015.5
20260507122825 71 39 0.0 2.0 0.00 0.00 0.00 83 1015.6
20260507122323 71 30 0.0 4.0 0.00 0.00 0.00 83 1015.6
20260507121825 71 21 1.0 4.0 0.00 0.00 0.00 83 1015.6
20260507121323 71 0 0.0 2.0 0.00 0.00 0.00 83 1015.6
20260507120824 71 340 0.0 3.0 0.00 0.00 0.00 83 1015.6
20260507115823 71 97 0.0 3.0 0.00 0.00 0.00 83 1015.6
20260507115323 71 17 1.0 3.0 0.00 0.00 0.00 83 1015.7
20260507114823 71 65 0.0 2.0 0.00 0.00 0.00 83 1015.8
20260507114321 71 25 0.0 2.0 0.00 0.00 0.00 83 1015.9
20260507113822 71 86 1.0 2.0 0.00 0.00 0.00 83 1015.9
20260507113321 71 99 0.0 4.0 0.00 0.00 0.00 83 1015.9
20260507112822 71 324 0.0 4.0 0.00 0.00 0.00 83 1015.9
20260507112320 71 32 0.0 2.0 0.00 0.00 0.00 83 1015.9
20260507111825 71 52 0.0 3.0 0.00 0.00 0.00 83 1016.0
20260507111320 71 41 1.0 4.0 0.00 0.00 0.00 83 1016.0
20260507110321 71 21 1.0 5.0 0.00 0.00 0.00 83 1016.0
20260507105822 71 0 1.0 5.0 0.00 0.00 0.00 83 1016.1
20260507105321 71 32 1.0 5.0 0.00 0.00 0.00 83 1016.1
20260507104824 71 124 1.0 5.0 0.00 0.00 0.00 83 1016.2
20260507104322 71 166 1.0 3.0 0.00 0.00 0.00 83 1016.2
20260507103822 71 87 0.0 3.0 0.00 0.00 0.00 83 1016.3
20260507103321 71 65 0.0 3.0 0.00 0.00 0.00 83 1016.3
20260507102319 71 42 1.0 4.0 0.00 0.00 0.00 82 1016.4
20260507101821 71 80 1.0 3.0 0.00 0.00 0.00 81 1016.4
20260507101319 71 99 0.0 3.0 0.00 0.00 0.00 82 1016.5
20260507100821 71 100 0.0 3.0 0.00 0.00 0.00 81 1016.5
20260507100321 71 35 1.0 3.0 0.00 0.00 0.00 82 1016.5
20260507095822 72 66 1.0 3.0 0.00 0.00 0.00 82 1016.5
20260507095319 72 99 1.0 4.0 0.00 0.00 0.00 81 1016.4
20260507094821 72 220 1.0 4.0 0.00 0.00 0.00 80 1016.5
20260507094320 72 106 0.0 4.0 0.00 0.00 0.00 80 1016.5
20260507093318 72 62 1.0 6.0 0.00 0.00 0.00 81 1016.6
20260507092821 72 27 1.0 6.0 0.00 0.00 0.00 81 1016.7
20260507092320 72 80 1.0 4.0 0.00 0.00 0.00 81 1016.8
20260507091821 72 125 1.0 4.0 0.00 0.00 0.00 81 1016.8
20260507091318 72 66 1.0 4.0 0.00 0.00 0.00 80 1016.8
20260507090820 72 35 0.0 4.0 0.00 0.00 0.00 80 1016.8
20260507090319 72 138 1.0 4.0 0.00 0.00 0.00 80 1016.8
20260507085820 72 102 0.0 4.0 0.00 0.00 0.00 80 1016.9
20260507085319 72 142 1.0 3.0 0.00 0.00 0.00 80 1016.9
20260507084819 72 109 0.0 3.0 0.00 0.00 0.00 81 1016.8
20260507084317 71 87 1.0 3.0 0.00 0.00 0.00 81 1016.9
20260507083317 71 21 2.0 5.0 0.00 0.00 0.00 82 1016.8
20260507082818 71 116 1.0 6.0 0.00 0.00 0.00 82 1016.8
20260507082317 71 44 1.0 6.0 0.00 0.00 0.00 82 1016.8
20260507081819 71 0 0.0 4.0 0.00 0.00 0.00 82 1016.8
20260507081318 71 62 1.0 4.0 0.00 0.00 0.00 83 1016.7
20260507080819 71 111 1.0 4.0 0.00 0.00 0.00 83 1016.7
20260507080316 71 48 0.0 4.0 0.00 0.00 0.00 83 1016.8
20260507075818 71 47 1.0 3.0 0.00 0.00 0.00 83 1016.7
20260507075317 71 140 1.0 5.0 0.00 0.00 0.00 83 1016.8
20260507074819 71 45 1.0 5.0 0.00 0.00 0.00 83 1016.7
20260507074316 71 86 0.0 5.0 0.00 0.00 0.00 84 1016.7
20260507073819 71 35 1.0 5.0 0.00 0.00 0.00 84 1016.6
20260507072818 72 90 1.0 7.0 0.00 0.00 0.00 85 1016.6
20260507072316 71 37 1.0 7.0 0.00 0.00 0.00 85 1016.5
20260507071315 72 28 1.0 4.0 0.00 0.00 0.00 85 1016.3
20260507070818 72 8 0.0 9.0 0.00 0.00 0.00 84 1016.3
20260507070315 72 227 1.0 9.0 0.00 0.00 0.00 84 1016.1
20260507065818 72 45 1.0 4.0 0.00 0.00 0.00 84 1016.1
20260507065315 72 128 1.0 3.0 0.00 0.00 0.00 84 1016.0
20260507064818 72 66 1.0 6.0 0.00 0.00 0.00 84 1016.1
20260507063818 72 113 1.0 5.0 0.00 0.00 0.00 85 1015.9
20260507063314 72 92 1.0 6.0 0.00 0.00 0.00 85 1015.9
20260507062315 72 73 2.0 6.0 0.00 0.00 0.00 85 1015.9
20260507061819 72 99 1.0 5.0 0.00 0.00 0.00 85 1015.7
20260507061314 72 62 2.0 5.0 0.00 0.00 0.00 85 1015.8
20260507060816 72 117 1.0 4.0 0.00 0.00 0.00 85 1015.6
20260507060314 72 172 2.0 4.0 0.00 0.00 0.00 85 1015.5
20260507055313 72 123 2.0 4.0 0.00 0.00 0.00 85 1015.4
20260507054815 72 3 1.0 4.0 0.00 0.00 0.00 84 1015.3
20260507054314 72 56 1.0 5.0 0.00 0.00 0.00 85 1015.3
20260507053816 72 138 2.0 7.0 0.00 0.00 0.00 84 1015.3
20260507053313 72 34 2.0 7.0 0.00 0.00 0.00 84 1015.1
20260507052815 72 152 0.0 5.0 0.00 0.00 0.00 85 1015.0
20260507052314 72 0 1.0 6.0 0.00 0.00 0.00 84 1015.0
20260507051814 72 78 2.0 6.0 0.00 0.00 0.00 84 1015.0
20260507051313 72 137 1.0 7.0 0.00 0.00 0.00 84 1014.9
20260507050816 72 0 1.0 7.0 0.00 0.00 0.00 85 1014.8
20260507050312 72 4 1.0 5.0 0.00 0.00 0.00 85 1014.8
20260507045814 72 38 1.0 5.0 0.00 0.00 0.00 85 1014.8
20260507045313 72 59 1.0 5.0 0.00 0.00 0.00 85 1014.7
20260507044814 72 0 2.0 5.0 0.00 0.00 0.00 85 1014.7
20260507044312 72 56 2.0 5.0 0.00 0.00 0.00 85 1014.6
20260507043312 72 69 2.0 6.0 0.00 0.00 0.00 85 1014.6
20260507042811 72 79 3.0 6.0 0.00 0.00 0.00 85 1014.4
20260507042313 72 116 3.0 6.0 0.00 0.00 0.00 85 1014.4
20260507041814 72 97 2.0 7.0 0.00 0.00 0.00 85 1014.4
20260507041311 72 55 1.0 7.0 0.00 0.00 0.00 85 1014.4
20260507040311 72 289 1.0 6.0 0.00 0.00 0.00 85 1014.2
20260507035813 72 188 1.0 5.0 0.00 0.00 0.00 85 1014.3
20260507035311 72 130 1.0 5.0 0.00 0.00 0.00 85 1014.2
20260507034813 73 73 1.0 5.0 0.00 0.00 0.00 85 1014.2
20260507034313 73 248 2.0 5.0 0.00 0.00 0.00 85 1014.1
20260507033812 73 138 1.0 5.0 0.00 0.00 0.00 85 1013.9
20260507032813 73 66 1.0 7.0 0.00 0.00 0.00 84 1014.0
20260507032312 73 169 1.0 11.0 0.00 0.00 0.00 84 1013.9
20260507031311 73 137 1.0 9.0 0.00 0.00 0.00 84 1013.9
20260507030812 73 28 2.0 5.0 0.00 0.00 0.00 83 1013.8
20260507030310 74 80 2.0 7.0 0.00 0.00 0.00 83 1013.7
20260507025813 74 149 2.0 7.0 0.00 0.00 0.00 83 1013.7
20260507024813 74 0 2.0 7.0 0.00 0.00 0.00 84 1013.6
20260507024309 74 72 1.0 6.0 0.00 0.00 0.00 84 1013.7
20260507023810 74 0 2.0 6.0 0.00 0.00 0.00 84 1013.8
20260507023309 74 30 1.0 4.0 0.00 0.00 0.00 84 1013.7
20260507022811 74 58 2.0 4.0 0.00 0.00 0.00 83 1013.7
20260507022310 74 69 2.0 5.0 0.00 0.00 0.00 83 1013.9
20260507021810 74 140 2.0 5.0 0.00 0.00 0.00 83 1013.7
20260507020835 74 20 1.0 6.0 0.00 0.00 0.00 82 1013.8
20260507015308 76 63 1.0 6.0 0.00 0.00 0.00 80 1013.9
20260507014810 76 69 2.0 6.0 0.00 0.00 0.00 79 1013.9
20260507014308 77 149 1.0 6.0 0.00 0.00 0.00 78 1013.9
20260507013809 78 168 1.0 6.0 0.00 0.00 0.00 77 1013.9
20260507013309 78 333 1.0 5.0 0.00 0.00 0.00 78 1013.8
20260507012813 78 182 1.0 3.0 0.00 0.00 0.00 78 1013.7
20260507012308 78 338 1.0 3.0 0.00 0.00 0.00 78 1013.8
20260507011811 78 228 0.0 3.0 0.00 0.00 0.00 77 1013.8
20260507011307 78 213 1.0 3.0 0.00 0.00 0.00 77 1013.7
20260507010810 78 314 0.0 7.0 0.00 0.00 0.00 78 1013.9
20260507010307 78 0 2.0 7.0 0.00 0.00 0.00 77 1013.9
20260507005809 78 220 1.0 4.0 0.00 0.00 0.00 79 1013.9
20260507005309 78 303 0.0 3.0 0.00 0.00 0.00 79 1013.9
20260507004809 77 82 0.0 3.0 0.00 0.00 0.00 79 1014.1
20260507003809 77 343 1.0 3.0 0.00 0.00 0.00 79 1014.2
20260507002808 77 175 0.0 3.0 0.00 0.00 0.00 79 1014.3
20260507002307 77 228 1.0 5.0 0.00 0.00 0.00 80 1014.4
20260507001810 77 148 1.0 5.0 0.00 0.00 0.00 79 1014.3
20260507001305 77 61 0.0 3.0 0.00 0.00 0.00 79 1014.4
20260507000807 77 20 1.0 5.0 0.00 0.00 0.00 79 1014.5
20260507000306 77 1 1.0 5.0 0.00 0.00 0.00 78 1014.5
20260506235307 78 204 1.0 5.0 0.00 0.00 0.00 77 1014.6
20260506234807 78 275 0.0 5.0 0.00 0.00 0.00 77 1014.6
20260506234306 78 321 1.0 2.0 0.00 0.00 0.00 78 1014.6
20260506233808 78 66 1.0 5.0 0.00 0.00 0.00 78 1014.7
20260506233305 78 357 2.0 5.0 0.00 0.00 0.00 76 1014.8
20260506232308 79 214 1.0 6.0 0.00 0.00 0.00 76 1014.7
20260506231807 79 125 1.0 4.0 0.00 0.00 0.00 76 1014.7
20260506231306 80 113 1.0 4.0 0.00 0.00 0.00 75 1014.8
20260506230807 80 125 1.0 6.0 0.00 0.00 0.00 75 1014.8
20260506230306 80 310 1.0 6.0 0.00 0.00 0.00 74 1014.9
20260506225806 80 142 1.0 5.0 0.00 0.00 0.00 74 1014.7
20260506225306 81 0 2.0 4.0 0.00 0.00 0.00 73 1014.7
20260506224807 81 283 2.0 4.0 0.00 0.00 0.00 73 1014.8
20260506223807 82 195 1.0 3.0 0.00 0.00 0.00 73 1014.7
20260506223304 82 0 1.0 5.0 0.00 0.00 0.00 74 1014.8
20260506222306 82 358 2.0 6.0 0.00 0.00 0.00 73 1014.8
20260506221806 82 3 1.0 5.0 0.00 0.00 0.00 71 1014.9
20260506221301 83 202 0.0 3.0 0.00 0.00 0.00 72 1015.0
20260506220806 83 68 1.0 3.0 0.00 0.00 0.00 71 1015.1
20260506215306 82 140 1.0 4.0 0.00 0.00 0.00 70 1015.1
20260506214806 82 214 1.0 3.0 0.00 0.00 0.00 74 1015.3
20260506214304 82 155 1.0 2.0 0.00 0.00 0.00 73 1015.3
20260506213806 81 104 0.0 3.0 0.00 0.00 0.00 74 1015.4
20260506213304 81 27 0.0 3.0 0.00 0.00 0.00 74 1015.4
20260506212808 80 173 0.0 3.0 0.00 0.00 0.00 74 1015.4
20260506211304 81 123 1.0 3.0 0.00 0.00 0.00 71 1015.6
20260506210804 81 162 0.0 1.0 0.00 0.00 0.00 71 1015.7
20260506205805 82 162 0.0 1.0 0.00 0.00 0.00 71 1015.7
20260506205305 82 162 0.0 2.0 0.00 0.00 0.00 73 1015.8
20260506204303 81 162 0.0 1.0 0.00 0.00 0.00 71 1015.7
20260506203806 82 162 0.0 2.0 0.00 0.00 0.00 73 1015.8
20260506203302 81 162 1.0 2.0 0.00 0.00 0.00 74 1015.7
20260506202804 81 148 0.0 1.0 0.00 0.00 0.00 73 1015.7
20260506202305 81 148 0.0 3.0 0.00 0.00 0.00 73 1015.6
20260506201803 81 147 0.0 3.0 0.00 0.00 0.00 73 1015.6
20260506201301 80 134 1.0 3.0 0.00 0.00 0.00 73 1015.7
20260506200805 80 130 0.0 3.0 0.00 0.00 0.00 76 1015.7
20260506200302 80 125 1.0 3.0 0.00 0.00 0.00 74 1015.5
20260506195803 80 148 1.0 3.0 0.00 0.00 0.00 74 1015.5
20260506195301 79 131 1.0 2.0 0.00 0.00 0.00 76 1015.4
20260506194804 79 131 0.0 2.0 0.00 0.00 0.00 76 1015.5
20260506194300 79 0 0.0 2.0 0.00 0.00 0.00 75 1015.4
20260506193300 79 99 0.0 3.0 0.00 0.00 0.00 75 1015.3
20260506192804 79 27 1.0 4.0 0.00 0.00 0.00 73 1015.4
20260506192259 79 42 1.0 6.0 0.00 0.00 0.00 73 1015.1
20260506191801 80 265 1.0 6.0 0.00 0.00 0.00 73 1015.1
20260506191301 80 16 1.0 5.0 0.00 0.00 0.00 73 1015.1
20260506185802 79 142 1.0 4.0 0.00 0.00 0.00 75 1014.9
20260506185301 78 87 1.0 4.0 0.00 0.00 0.00 76 1014.8
20260506184801 78 0 1.0 2.0 0.00 0.00 0.00 76 1014.9
20260506183803 77 0 0.0 3.0 0.00 0.00 0.00 76 1014.9
20260506183259 76 48 0.0 3.0 0.00 0.00 0.00 75 1014.9
20260506182801 76 168 1.0 3.0 0.00 0.00 0.00 75 1015.0
20260506182259 76 90 0.0 2.0 0.00 0.00 0.00 76 1014.8
20260506181758 75 34 0.0 2.0 0.00 0.00 0.00 76 1014.8
20260506180802 75 13 0.0 3.0 0.00 0.00 0.00 77 1014.9
20260506180259 74 103 0.0 2.0 0.00 0.00 0.00 76 1014.8
20260506175800 74 149 0.0 1.0 0.00 0.00 0.00 76 1014.9
20260506174801 74 140 0.0 2.0 0.00 0.00 0.00 75 1014.8
20260506174259 74 140 0.0 2.0 0.00 0.00 0.00 73 1014.8
20260506173800 74 34 0.0 1.0 0.00 0.00 0.00 75 1014.7
20260506172801 73 20 0.0 3.0 0.00 0.00 0.00 75 1014.8